Volver al catálogo

SL-8 DEB

ActivoLEO
NORAD 21165·DEBRIS·🇷🇺 Russia

Lanzado Feb 12, 1991 desde Plesetsk Cosmodrome

Loading…

Próximos Pases (próximas 24 horas)

TLE

ActualizadoSource: Space-Track

Época: Sep 13, 2026, 19:08 UTC

1 21165U 91009AC  26256.79777164  .00000257  00000-0  27899-2 0  9994
2 21165  74.1597  77.4143 0160295 282.3927  88.2146 12.12153158571812

Sigue SL-8 DEB en tiempo real con AllMySat

Download on the App Store